Вернуться в каталог

BLOCK DM-SL R/B

АктивенHEO
NORAD 33377·ROCKET BODY· XX

Запущен Sep 24, 2008 с Sea Launch Platform

Loading…

Ближайшие Пролёты (ближайшие 24 часа)

TLE

СвежийSource: Space-Track

Эпоха: Sep 14, 2026, 07:50 UTC

1 33377U 08045B   26257.32687497 -.00000157  00000-0  00000-0 0  9992
2 33377   0.9349  64.3396 6418468  77.0624 289.1079  2.12855347139808

Отслеживайте BLOCK DM-SL R/B в реальном времени с AllMySat

Download on the App Store